Tracking 27086 objects as of 22-Mar-2023
HD Live streaming from Space Station
objects crossing your sky now

STARLINK-3721

Track STARLINK-3721 now!
10-day predictions
STARLINK-3721 is classified as:


NORAD ID: 52134
Int'l Code: 2022-029AY
Perigee: 546.1 km
Apogee: 547.7 km
Inclination: 53.2 °
Period: 95.4 minutes
Semi major axis: 6917 km
RCS: Unknown
Launch date: March 19, 2022
Source: United States (US)
Launch site: AIR FORCE EASTERN TEST RANGE (AFETR)
Your satellite tracking list
Your tracking list is empty




NASA's NSSDC Master Catalog

Two Line Element Set (TLE):
1 52134U 22029AY  23081.18259478  .00000808  00000-0  68823-4 0  9995
2 52134  53.2163 253.1754 0001144  98.3500 261.7622 15.08838926 57366
Source of the keplerian elements: AFSPC